Regional Weather Roundup
Issued by NWS

Home | Current Version | Previous Version | Text Only | Print | Product List | Glossary Off
Versions: 1 2 3 4 5 6 7 8 9 10 11 12 13 14 15 16 17 18 19 20 21 22 23 24 25 26 27

000
ASUS45 KBOU 221707
RWRCO

WEATHER ROUNDUP FOR COLORADO
NATIONAL WEATHER SERVICE DENVER/BOULDER CO
1100 AM MDT SAT JUL 22 2017

NOTE: "FAIR" INDICATES FEW OR NO CLOUDS BELOW 12000 FEET WITH NO
SIGNIFICANT WEATHER AND/OR OBSTRUCTIONS TO VISIBILITY.

COZ001>005-013-030-031-221800-
...NORTHWEST COLORADO...

CITY           SKY/WX    TMP DP  RH WIND       PRES   REMARKS
CRAIG          FAIR      73  53  49 NE6       30.32S
HAYDEN         FAIR      70  46  43 CALM      30.34F
MEEKER         FAIR      72  52  49 S5        30.31F
RABBIT EARS PA FAIR      61  36  39 CALM      30.62S
STEAMBOAT SPGS FAIR      68  51  54 CALM      30.36S
WALDEN         PTSUNNY   59  48  67 CALM      30.46S
$$

COZ006>008-011-221800-
...WEST CENTRAL VALLEYS...

CITY           SKY/WX    TMP DP  RH WIND       PRES   REMARKS
GRAND JUNCTION FAIR      77  61  57 S8        30.20F
MONTROSE       FAIR      70  56  61 SW3       30.28F
EAGLE          MOSUNNY   64  55  72 CALM      30.37F
RIFLE          FAIR      77  55  46 VRB6      30.25F
DELTA          FAIR      77  56  48 S3        30.25S
NUCLA          FAIR      75  52  43 NW5       30.29S
$$

COZ017>023-064>068-221800-
...SOUTHWEST COLORADO...

CITY           SKY/WX    TMP DP  RH WIND       PRES   REMARKS
DURANGO        FAIR      74  53  48 N5        30.28S
CORTEZ         FAIR      77  56  48 S3        30.23S
PAGOSA SPRINGS FAIR      71  50  46 CALM      30.36S
TELLURIDE      CLOUDY    64  52  65 CALM      30.49S
WOLF CREEK PAS NOT AVBL
$$

COZ009-010-012-014-032>034-037-058>063-221800-
...CENTRAL COLORADO...

CITY           SKY/WX    TMP DP  RH WIND       PRES   REMARKS
ASPEN          FAIR      67  51  56 VRB6      30.40F
BUENA VISTA    PTSUNNY   70  46  42 S12       30.42S
COPPER MTN     FAIR      59  45  58 CALM      30.72S
BERTHOUD PASS  PTSUNNY   46  32  57 SE6       30.76R
COTTONWOOD PAS CLOUDY    68  43  40 SE9       30.56R
GUNNISON       FAIR      64  51  62 VRB3      30.39F
KREMMLING      FAIR      72  54  53 CALM      30.41F
LEADVILLE      FAIR      65  40  39 VRB3      30.50F
MONARCH PASS   DRIZZLE   46  43  87 NE15      30.79S
SALIDA         PTSUNNY   65  51  61 CALM      30.48S
SUNLIGHT       FAIR      59  43  55 NE5       30.65R
WILKERSON PASS FAIR      59  41  51 NE5       30.68S
$$

COZ069>075-221800-
...SAN LUIS VALLEY/SANGRE DE CRISTO MOUNTAINS...

CITY           SKY/WX    TMP DP  RH WIND       PRES   REMARKS
ALAMOSA        FAIR      73  48  41 VRB6      30.35S
DEL NORTE      FAIR      67  47  48 SE5       30.40S
LA VETA PASS   NOT AVBL
SAGUACHE         N/A    N/A N/A N/A MISG        N/A
$$

COZ035-036-038>040-221800-
...NORTHERN COLORADO FRONT RANGE...

CITY           SKY/WX    TMP DP  RH WIND       PRES   REMARKS
DENVER INTL AP PTSUNNY   81  50  33 NW8       30.22S
DMNS CITY PARK   N/A     80  52  37 E5G10     30.23S
AURORA         PTSUNNY   76  55  48 N3        30.24F
FRONT RANGE AP FAIR      79  50  36 NW5       30.24S
ERIE MUNI ARPT FAIR      79  51  36 CALM      30.21S
BOULDER MUN AP FAIR      81  48  32 E6        30.22R
CENTENNIAL     FAIR      77  50  38 CALM      30.25F
BROOMFIELD     FAIR      79  48  34 CALM      30.25S
FORT COLLINS   FAIR      80  57  45 SE8       30.21S
LONGMONT       FAIR      83  52  34 SE5       30.21F
$$

COZ041-046-047-076>085-087-088-221800-
...PIKES PEAK/PALMER DIVIDE AND SOUTHERN FOOTHILLS...

CITY           SKY/WX    TMP DP  RH WIND       PRES   REMARKS
COLO. SPRINGS  PTSUNNY   74  55  51 CALM      30.29S
A. F. ACADEMY  FAIR      73  48  41 N12       30.30S
SCHRIEVER AFB  PTSUNNY   71  55  56 N7        30.29S
CHEYENNE MTN   PTSUNNY   72  42  33 NW10      30.28S
ELLICOTT       FAIR     N/A N/A N/A CALM      30.27S
FALCON           N/A     70  53  54 E3        30.35R
FORT CARSON    PTSUNNY   74  55  52 N6        30.25S
LIMON          CLOUDY    74  59  59 E10       30.24R
MONUMENT HILL  FAIR      70  48  46 N8        30.36R
CANON CITY     PTSUNNY   72  59  64 W6        30.23S
WALSENBURG     FAIR      81  50  34 E7        30.25S
TRINIDAD       FAIR      83  46  27 E6        30.22S
$$

COZ042>045-048>051-090-091-221800-
...NORTHEAST COLORADO...

CITY           SKY/WX    TMP DP  RH WIND       PRES   REMARKS
GREELEY ARPT   FAIR      80  59  48 VRB3      30.19S
AKRON          FAIR      77  58  51 VRB5      30.19F
BURLINGTON     FAIR      81  59  47 N12G18    30.14S
WRAY           NOT AVBL
YUMA           NOT AVBL
STERLING       FAIR      72  63  73 SW5       30.14F
HOLYOKE        FAIR      77  61  57 N3        30.14S
FORT MORGAN    FAIR      77  58  51 S3        30.19S
$$

COZ086-089-092>099-221800-
...SOUTHEAST COLORADO...

CITY           SKY/WX    TMP DP  RH WIND       PRES   REMARKS
PUEBLO         FAIR      82  55  39 VRB5      30.17S
LA JUNTA       FAIR      83  59  44 N8        30.13S
LAMAR          FAIR      88  58  36 N9        30.07F
SPRINGFIELD      N/A     84  55  36 N9        30.11S
$$




USA.gov is the U.S. government's official web portal to all federal, state and local government web resources and services.